COSMOS 565

Satellite information

Favourite Embed

Satellite Type and Status

PAYLOADIN ORBIT

Key statistics

Satellite COSMOS 565 at a glance.

Uptime

19133

Days in orbit

Revolutions

≈ 12.5

Per day

Orbit

LEO

Low Earth Orbit

Inclination

74.0

Latest

Satellite identification and parameters

Extended collection of information and parameters for COSMOS 565.

Object identification

Identified? True

Debris? False

Object name: COSMOS 565

International designator: 1973-037B

Object number (NORAD): 6676

Object ID (CCSDS): 6676

Country: COMMONWEALTH OF INDEPENDENT STATES (CIS)

Current information (Y/N): Y

RCS size: MEDIUM

Orbital parameters

Period: 115.295 minutes

Inclination: 74.0182 deg

SMA: 7846.959 km

Apoapsis: 1489.879 km

Periapsis: 1447.768 km

RAAN: 316.8874 deg

Eccentricy: 0.00268329

Argument of periapsis: 282.5824 deg

Mean anomaly: 189.5225 deg

Mean motion: 12.48966278 rev/day

Mean motion (dot): -0.00000013 rev/day2

B* drag term: 0.000020635442 1/REarth

Two-line elements (TLE)

Creation date: Oct. 26, 2025, 2:54 a.m.

Reference frame: TEME

Reference center: EARTH

Epoch: Oct. 25, 2025, 6:51 p.m. UTC

TLE line 0: 0 COSMOS 565

TLE line 1: 1 06676U 73037B 25298.78584588 -.00000013 00000-0 20635-4 0 9999

TLE line 2: 2 06676 74.0182 316.8874 0026833 282.5824 189.5225 12.48966278388249

Live tracking on map

Real-time ground track for satellite COSMOS 565.

In-orbit conjunctions

There are no conjunctions computed for COSMOS 565, at the moment. Check back to stay up to date, as we update our databases every day.

Go to all conjunctions

Associated space launch

Military communications satellites

COSMOS 565 was lifted into orbit during the mission ‘Kosmos-3M | Strela-1M 41-48’, on board a Kosmos-3M space rocket.

The launch took place on June 8, 1973, 3:50 p.m. from 132/1 (132L).

For more information about the launch, click the button.

Launch to space Kosmos-3M | Strela-1M 41-48
Kosmos-3M | Strela-1M 41-48

Agency: N/A

Status: Launch Successful

Launch date: June 8, 1973, 3:50 p.m. UTC

Rocket: Kosmos-3M

Launch pad: 132/1 (132L)

Location: Plesetsk Cosmodrome, Russian Federation

...

Latest news about this satellite

There are no fresh news available about this satellite. Check back as we update our databases every day.


Newsletter sign-up

Weekly statistics, charts and insights to help you stay on top of the space industry.